Starlink 32734

operational
NORAD ID: 62476 Int'l Des: 2024-254 Owner: SPXS Country: US Constellation: starlink
LEOCIRCULAR

Starlink 32734について

説明を読み込み中...

リアルタイム位置

3D地球を読み込み中...

次回通過

高度履歴

Altitude vs Time

uPlot chart will show altitude changes over time

軌道要素

1 62476U 24254Q 25346.15262524 .00022440 00000-0 82209-3 0 9995
2 62476 42.9981 150.8766 0001234 272.8486 87.2225 15.27596425 54269
Epoch: Dec 12, 2025 • Age: 22 hours

現在のステータス

高度 492.4 km
速度 7.62 km/s
衛星直下点 -35.82°S, 7.2°W
打ち上げ日 Dec 31, 2024
運用期間 0.9 years
タイプ internet

技術仕様

分類 Payload
質量 730.00 kg
乾燥質量 700.00 kg
総質量 730.00 kg
長さ 0.30 m
直径 4.10 m
スパン 29.00 m
形状 Box + pan
製造者 SPXS
バスタイプ Starlink V2M
フェーズステータス In Orbit
所有者/国 SPXS/US

大規模コンステレーション

Loading constellations...